Vorticity
20 17 14 11 9 8 9 10 11 12 12 12 12 11 11 11 11 10 9 6 3 4 5 8 8 9 12 15 14 13 11 10 10 10 10 8 8 9 11 13 10 8 8 9 11 12 11 10 9 9 10 10 9 9 9 10 10 10 10 10 9 8 6 5 5 4 4 3 2
23 21 19 17 16 14 13 12 13 13 12 12 12 12 11 11 12 11 10 7 4 3 4 7 8 10 13 17 17 16 13 10 10 10 10 10 10 12 14 14 10 8 7 8 10 12 12 12 11 11 10 10 10 9 9 9 9 9 9 9 8 7 6 5 5 4 4 3 2
26 24 23 21 20 18 17 15 14 14 13 13 13 12 12 12 12 13 12 11 7 4 2 4 5 8 13 18 20 20 19 15 13 13 13 12 13 15 16 15 11 8 7 8 9 11 12 13 13 12 11 10 10 10 9 8 9 9 8 8 7 6 5 5 5 4 3 2 2
28 26 24 23 22 20 19 18 16 15 14 13 13 13 13 13 14 15 16 15 9 4 -0 -1 3 8 14 20 22 22 21 19 18 17 16 15 16 17 17 16 13 10 8 8 10 11 13 14 14 13 12 11 11 10 9 7 8 8 8 8 7 6 5 5 5 4 3 2 2
28 27 25 24 23 22 21 20 18 17 15 14 13 13 13 14 15 16 16 14 9 3 -1 -3 1 7 15 20 22 23 23 22 21 20 18 17 18 18 18 17 14 13 11 11 13 14 16 17 17 16 15 14 13 12 10 8 7 7 7 7 6 5 5 5 5 4 3 2 2
26 26 25 24 23 22 21 20 18 18 16 15 13 13 13 15 16 16 15 13 8 2 -4 -6 -1 6 14 21 24 24 24 22 22 20 19 18 17 18 19 19 18 16 16 17 19 20 20 20 19 18 17 16 15 13 10 8 8 7 6 6 6 5 4 4 5 4 3 2 2
24 24 23 23 22 21 20 20 19 18 18 16 14 13 13 15 16 16 16 13 6 -2 -9 -13 -7 0 9 16 20 22 23 22 20 19 18 17 18 18 19 20 19 18 20 22 23 23 22 20 19 18 18 16 14 11 9 8 7 6 6 6 6 5 4 4 4 3 2 2 2
24 23 22 22 21 21 20 19 19 18 18 17 15 13 13 14 17 18 17 14 6 -2 -11 -18 -16 -8 2 11 15 17 18 18 16 16 16 17 18 18 17 16 15 16 18 21 22 22 20 19 18 17 15 14 11 9 7 6 6 6 6 6 6 6 5 4 3 2 1 2 3
23 22 22 21 21 20 19 19 18 18 18 18 16 14 13 14 17 18 18 15 9 1 -7 -16 -20 -16 -6 4 10 12 12 12 13 13 14 15 15 14 12 10 9 10 13 16 19 19 19 17 16 14 13 10 8 7 6 5 5 5 6 6 6 6 5 4 2 2 2 2 3
23 22 21 21 20 20 19 18 18 17 17 17 16 15 13 13 16 19 20 18 12 5 -1 -6 -14 -17 -14 -4 4 8 9 9 11 12 13 11 9 7 6 4 3 4 7 12 16 17 18 16 14 12 10 8 6 6 5 5 5 5 6 6 6 6 5 4 2 2 2 2 3
22 22 22 21 20 20 19 18 18 17 17 17 16 15 14 13 15 18 21 22 16 9 4 1 -5 -11 -15 -12 -4 2 6 7 9 11 10 8 5 4 3 2 -0 -0 2 7 12 15 16 16 14 11 9 7 6 5 5 5 5 5 6 6 6 5 5 4 3 2 3 4 4
19 21 22 22 21 20 19 18 18 17 17 17 16 16 15 13 14 17 20 23 20 13 7 3 3 -1 -8 -14 -12 -6 -0 4 6 8 7 6 5 4 3 3 2 2 3 5 8 12 14 15 14 12 10 8 6 5 5 5 5 5 6 6 5 5 4 5 4 4 4 4 4
14 17 20 21 21 21 20 19 18 18 17 17 16 16 15 14 13 15 18 22 22 18 11 5 8 8 3 -7 -13 -14 -10 -3 1 4 4 4 4 5 4 4 4 4 4 5 7 9 11 12 13 13 12 10 8 7 6 6 6 6 6 6 5 4 4 5 5 5 6 6 5
11 13 16 18 20 21 21 20 19 18 17 17 16 16 15 14 13 14 16 20 22 20 16 9 9 12 13 7 -5 -13 -16 -13 -7 -2 0 1 3 4 5 4 3 3 3 4 5 6 8 9 11 13 13 13 13 11 10 9 8 8 7 6 6 5 6 6 7 8 8 8 7
12 11 12 14 17 19 20 21 20 19 18 17 17 16 15 14 13 13 14 16 20 21 20 14 10 12 17 20 10 -2 -13 -18 -15 -11 -6 -2 1 3 4 4 2 2 2 3 4 4 5 6 7 9 11 13 14 15 15 14 13 12 10 9 8 8 8 9 10 10 11 11 10
14 12 11 10 12 15 18 20 20 20 19 18 17 17 16 15 14 13 13 14 16 19 21 19 13 12 15 24 23 14 0 -12 -16 -17 -14 -10 -5 -0 2 3 2 2 2 2 3 3 3 3 3 4 6 7 9 12 14 15 16 15 14 12 11 11 11 11 12 12 12 11 10
17 15 13 11 10 11 13 16 18 20 20 19 18 18 17 16 16 15 14 13 13 16 18 20 17 14 13 19 28 26 17 2 -7 -13 -16 -16 -12 -8 -3 -0 1 1 1 1 1 1 0 -0 -1 -1 -0 0 2 4 5 7 8 9 9 9 9 8 8 8 8 7 6 6 5
16 17 16 14 12 10 10 12 14 17 18 19 19 18 18 18 17 16 15 14 13 13 15 17 18 16 14 14 23 29 29 18 7 -2 -8 -13 -15 -14 -12 -8 -6 -4 -4 -4 -4 -4 -4 -4 -5 -5 -6 -6 -6 -5 -4 -4 -3 -3 -2 -2 -1 -1 -1 -1 -2 -2 -3 -3 -3
13 16 17 17 15 13 11 10 11 12 15 17 18 18 18 18 18 17 16 15 14 13 13 13 15 16 15 13 17 24 30 30 20 10 2 -4 -8 -11 -13 -14 -13 -13 -12 -11 -11 -10 -9 -9 -9 -9 -10 -11 -11 -11 -11 -12 -12 -12 -12 -11 -11 -10 -10 -10 -10 -9 -8 -8 -6
11 13 15 18 18 16 14 12 10 10 11 13 15 17 18 18 18 17 17 16 15 15 14 13 13 13 14 13 14 18 24 31 28 21 12 4 0 -2 -5 -8 -11 -13 -14 -15 -15 -15 -14 -13 -13 -13 -13 -14 -14 -14 -14 -14 -14 -14 -14 -13 -12 -11 -10 -9 -8 -7 -6 -5 -3
11 10 11 14 17 18 18 16 13 11 10 10 11 13 15 17 17 17 17 16 16 15 15 14 13 13 12 12 12 14 17 23 28 27 22 13 7 4 3 2 0 -2 -5 -8 -11 -12 -13 -13 -13 -14 -14 -14 -13 -13 -12 -10 -10 -9 -8 -7 -6 -5 -4 -3 -2 -1 0 2 3
14 11 10 10 13 16 18 19 17 15 12 10 10 10 12 14 15 16 16 16 16 15 15 15 14 13 13 12 12 12 13 16 22 26 27 23 16 10 6 6 8 8 8 5 2 -0 -2 -4 -5 -6 -7 -7 -6 -6 -4 -3 -2 -2 -1 -0 1 2 2 4 5 6 6 7 6
18 15 12 9 10 12 15 18 19 19 16 14 11 10 10 10 12 13 14 15 15 15 15 15 15 14 13 13 12 12 12 13 16 20 24 26 23 18 12 8 9 12 14 15 14 12 10 8 7 6 5 4 4 4 4 4 5 5 5 5 6 6 7 8 9 9 9 9 8
21 19 16 12 9 9 11 14 18 20 20 18 16 13 11 10 10 10 12 13 14 14 15 15 15 14 14 14 13 13 12 12 13 15 18 22 23 22 18 14 12 12 14 17 19 19 18 16 15 14 14 13 12 12 11 10 10 10 10 9 10 10 10 11 11 11 10 10 10
22 21 20 16 12 10 8 9 13 16 19 21 20 17 14 12 10 10 10 10 11 12 13 14 14 14 14 14 14 14 13 13 13 13 14 16 19 20 21 19 16 14 14 16 18 20 20 21 20 18 18 18 17 16 15 14 14 13 12 12 12 11 12 12 12 13 12 12 11
21 22 22 20 16 13 10 8 9 11 14 18 21 21 19 16 14 11 10 9 9 10 11 12 12 13 13 13 13 13 14 14 13 13 13 13 15 17 18 19 18 16 14 14 15 17 18 20 20 20 20 19 18 17 16 15 14 14 14 13 13 13 13 12 13 13 13 12 12
20 21 22 22 20 18 14 10 8 8 9 13 17 20 21 21 18 15 13 11 10 10 9 10 10 11 12 12 12 13 13 13 13 13 13 13 13 13 14 16 16 16 14 13 13 14 15 17 17 18 18 18 18 16 15 14 14 14 14 13 14 14 14 13 12 11 11 11 11
17 19 21 22 23 21 18 15 11 9 7 8 11 15 18 22 22 20 17 14 12 11 10 9 9 10 10 10 11 12 12 12 12 12 12 12 12 12 12 13 13 13 14 13 13 13 13 14 15 16 16 17 16 16 16 15 14 13 13 13 13 13 13 12 11 10 9 8 8
14 16 18 20 22 22 22 20 16 13 9 7 7 9 12 17 20 22 21 19 16 14 12 10 10 9 9 9 10 10 11 11 12 12 12 12 11 11 11 11 11 12 12 13 13 13 12 13 13 14 14 15 15 15 15 15 14 14 14 13 13 13 12 11 10 9 8 8 7
12 13 14 16 19 21 22 22 20 17 13 10 8 7 7 10 14 18 21 22 21 18 16 14 12 10 9 9 9 10 10 10 11 11 11 11 11 11 11 11 11 11 11 11 11 11 11 11 11 12 12 13 13 14 14 14 14 14 14 13 13 13 12 11 11 10 9 9 8
13 13 13 14 16 18 20 22 22 20 18 14 11 9 7 6 8 11 15 20 21 22 20 18 15 13 11 10 10 10 10 10 10 10 10 11 11 11 11 11 10 10 10 10 10 10 10 10 10 10 10 11 11 12 12 12 13 13 13 13 13 13 13 13 12 12 11 11 10
16 16 15 15 15 16 18 19 21 21 21 19 16 13 10 7 6 7 9 13 17 20 22 22 19 17 14 12 11 10 10 10 10 10 10 10 11 11 11 11 10 10 10 9 9 8 8 8 8 8 8 9 9 10 10 10 11 11 12 12 12 12 12 12 12 12 12 12 12
16 16 17 16 16 16 17 18 19 20 21 22 20 17 14 11 8 6 6 7 11 15 19 22 22 20 18 16 14 13 11 10 10 10 10 10 10 11 11 11 11 10 10 10 9 8 8 8 7 7 7 7 8 8 8 8 9 9 9 9 10 10 10 11 11 12 12 12 12
14 15 15 16 16 16 17 18 18 20 21 22 22 21 18 15 12 9 7 6 7 9 12 16 19 20 20 19 18 16 14 13 12 11 10 10 10 10 11 11 11 11 11 10 10 10 9 9 8 8 7 7 7 7 7 7 7 7 7 8 8 8 8 9 9 9 10 10 10
12 12 13 13 14 15 16 17 18 19 20 21 22 22 22 20 17 14 11 8 6 6 7 10 14 18 20 21 20 19 17 16 14 12 11 11 10 10 11 11 11 11 11 11 11 10 10 10 10 9 8 8 7 7 6 6 6 7 7 7 7 7 7 7 7 8 8 8 8
10 10 10 11 12 12 13 14 16 17 18 20 21 22 23 23 22 19 16 12 9 7 6 6 9 12 16 19 20 20 19 18 16 15 13 12 11 11 11 11 11 11 11 11 11 11 11 11 11 10 10 9 8 7 7 7 7 7 7 7 8 8 8 8 8 8 8 8 8
8 8 8 9 10 10 11 12 13 14 16 18 19 21 22 24 24 23 21 17 14 11 8 6 6 8 10 13 16 18 20 20 19 18 16 14 12 12 12 12 11 11 11 11 12 12 12 12 12 11 11 10 10 9 8 8 8 8 8 8 8 8 8 8 8 9 9 9 9
8 8 7 8 8 9 9 10 10 12 14 16 17 19 20 22 23 24 24 22 19 16 12 9 7 6 7 8 11 14 17 19 19 19 18 16 15 13 13 12 12 11 11 11 12 12 12 12 13 12 12 11 11 10 10 10 10 9 9 9 10 10 10 10 10 10 11 11 12
9 8 7 7 8 8 8 9 9 10 11 13 14 16 18 20 22 23 24 24 22 20 17 14 11 8 7 7 8 10 12 15 17 18 19 18 17 16 14 13 13 12 11 11 12 12 13 13 13 13 13 13 12 12 12 11 11 11 11 11 11 11 12 12 12 12 12 13 14
10 8 8 7 7 8 8 8 8 9 9 10 12 14 16 18 20 22 23 24 24 22 21 18 15 12 9 8 7 8 9 11 13 16 18 18 18 18 17 16 15 13 12 11 12 12 13 13 14 14 14 14 14 13 13 13 13 13 13 13 12 13 13 13 13 14 14 14 15
10 9 8 8 7 7 8 8 8 8 8 9 10 12 13 16 18 20 21 22 23 23 22 21 18 16 13 10 8 8 8 8 10 12 15 16 18 18 18 18 17 15 14 13 13 13 13 14 14 15 15 15 15 15 15 14 14 14 14 14 14 14 14 15 15 15 15 16 16
Height
5627 5629 5631 5633 5636 5638 5640 5642 5645 5647 5650 5652 5655 5657 5659 5661 5662 5664 5665 5667 5669 5671 5672 5674 5676 5677 5678 5680 5681 5683 5684 5686 5688 5690 5691 5693 5695 5697 5699 5701 5702 5704 5706 5707 5708 5710 5712 5714 5716 5718 5720 5721 5723 5724 5726 5727 5728 5730 5731 5732 5733 5735 5736 5737 5738 5740 5741 5742 5743
5622 5625 5627 5629 5631 5634 5636 5639 5642 5644 5646 5648 5651 5653 5655 5657 5659 5660 5662 5664 5666 5668 5670 5672 5673 5674 5676 5677 5678 5679 5681 5683 5685 5687 5688 5690 5692 5694 5696 5698 5700 5701 5703 5704 5706 5707 5709 5711 5713 5715 5717 5718 5720 5722 5723 5724 5726 5727 5728 5730 5731 5732 5733 5735 5736 5737 5738 5740 5741
5618 5621 5623 5625 5627 5630 5632 5635 5637 5640 5642 5644 5647 5649 5651 5653 5655 5657 5659 5661 5663 5665 5668 5669 5671 5672 5673 5674 5675 5677 5678 5680 5682 5684 5686 5687 5689 5691 5693 5695 5697 5698 5700 5701 5703 5704 5706 5708 5710 5712 5714 5715 5717 5719 5720 5722 5723 5724 5726 5727 5728 5730 5731 5732 5733 5735 5736 5737 5738
5615 5617 5619 5622 5624 5626 5628 5631 5633 5635 5637 5640 5642 5645 5647 5650 5652 5654 5656 5658 5660 5663 5665 5667 5668 5669 5670 5671 5672 5674 5675 5677 5679 5681 5682 5684 5686 5688 5690 5692 5693 5695 5697 5698 5700 5702 5703 5705 5707 5709 5711 5712 5714 5716 5717 5719 5720 5722 5723 5724 5726 5727 5728 5729 5731 5732 5733 5735 5736
5612 5613 5616 5617 5620 5622 5624 5626 5629 5631 5634 5636 5639 5642 5644 5646 5648 5651 5653 5655 5657 5660 5662 5663 5665 5667 5668 5669 5670 5671 5673 5674 5676 5678 5679 5681 5683 5685 5687 5688 5690 5692 5693 5695 5697 5698 5700 5702 5704 5706 5707 5709 5711 5712 5714 5716 5717 5719 5720 5721 5723 5724 5725 5727 5728 5729 5731 5732 5733
5608 5610 5612 5614 5616 5618 5620 5622 5625 5627 5630 5632 5635 5638 5640 5642 5645 5647 5650 5652 5654 5656 5658 5661 5662 5664 5665 5666 5667 5669 5670 5672 5674 5675 5677 5678 5680 5682 5683 5685 5687 5688 5690 5692 5694 5695 5697 5699 5701 5703 5705 5706 5708 5710 5711 5713 5714 5716 5717 5719 5720 5721 5722 5724 5725 5727 5728 5729 5731
5605 5607 5608 5610 5612 5614 5617 5619 5621 5623 5626 5629 5632 5634 5636 5639 5641 5644 5646 5648 5650 5652 5655 5658 5660 5661 5662 5664 5665 5667 5668 5670 5671 5672 5674 5675 5677 5679 5680 5682 5683 5685 5687 5689 5691 5692 5694 5696 5698 5700 5702 5704 5705 5707 5708 5710 5712 5713 5714 5716 5717 5718 5720 5721 5722 5724 5725 5727 5728
5602 5604 5605 5607 5609 5611 5613 5615 5617 5620 5622 5625 5627 5630 5632 5635 5637 5640 5642 5645 5647 5649 5652 5654 5657 5658 5660 5662 5663 5665 5666 5667 5669 5670 5672 5672 5674 5676 5677 5679 5681 5683 5685 5687 5688 5690 5692 5693 5695 5697 5699 5701 5703 5704 5706 5707 5709 5710 5712 5713 5714 5716 5717 5718 5720 5721 5722 5724 5725
5599 5601 5602 5604 5606 5607 5610 5612 5614 5616 5619 5621 5623 5626 5628 5631 5633 5636 5639 5641 5643 5645 5648 5651 5653 5656 5658 5659 5661 5662 5664 5665 5667 5668 5669 5670 5671 5673 5674 5676 5678 5680 5682 5684 5686 5687 5689 5691 5692 5694 5696 5698 5700 5702 5703 5705 5706 5707 5709 5710 5711 5713 5714 5716 5717 5718 5719 5721 5722
5597 5598 5599 5601 5602 5604 5606 5608 5610 5612 5615 5617 5619 5622 5624 5627 5630 5632 5635 5637 5639 5642 5644 5647 5650 5652 5655 5657 5658 5660 5661 5662 5664 5665 5666 5667 5668 5670 5672 5674 5676 5678 5680 5682 5683 5685 5687 5688 5690 5692 5693 5695 5697 5698 5700 5702 5703 5704 5706 5707 5708 5710 5711 5713 5714 5715 5717 5718 5719
5594 5595 5597 5598 5599 5601 5603 5605 5607 5609 5611 5613 5616 5618 5621 5623 5626 5628 5630 5633 5636 5638 5640 5643 5646 5649 5652 5653 5655 5657 5658 5660 5661 5662 5664 5665 5666 5667 5669 5671 5673 5676 5677 5679 5681 5682 5684 5686 5687 5689 5690 5692 5694 5695 5697 5698 5700 5701 5703 5704 5705 5707 5708 5710 5711 5712 5714 5715 5717
5592 5593 5594 5595 5596 5598 5600 5602 5603 5605 5607 5610 5612 5614 5617 5619 5622 5624 5627 5630 5632 5635 5636 5638 5642 5645 5647 5650 5652 5654 5655 5657 5658 5660 5661 5662 5663 5664 5666 5667 5670 5672 5674 5676 5678 5679 5681 5683 5685 5686 5688 5689 5691 5692 5694 5695 5697 5698 5700 5701 5702 5704 5705 5707 5708 5709 5711 5712 5714
5590 5591 5592 5592 5594 5595 5597 5598 5600 5602 5604 5606 5608 5611 5613 5615 5617 5620 5623 5626 5628 5630 5632 5635 5637 5640 5643 5645 5648 5650 5652 5653 5655 5657 5658 5659 5660 5661 5662 5664 5666 5667 5670 5672 5674 5676 5678 5680 5682 5683 5685 5687 5688 5689 5691 5692 5694 5695 5697 5698 5700 5701 5702 5704 5705 5706 5708 5709 5711
5587 5588 5589 5590 5591 5592 5594 5595 5597 5598 5600 5602 5604 5607 5609 5611 5614 5617 5619 5622 5624 5626 5628 5631 5632 5635 5638 5641 5643 5646 5648 5650 5652 5653 5655 5656 5657 5658 5660 5661 5662 5664 5666 5667 5670 5672 5674 5676 5678 5680 5682 5683 5685 5687 5688 5689 5691 5692 5694 5695 5697 5698 5699 5700 5702 5703 5705 5706 5707
5585 5586 5587 5588 5589 5590 5591 5592 5594 5595 5597 5599 5601 5603 5605 5607 5610 5613 5615 5617 5620 5622 5624 5627 5628 5630 5633 5636 5639 5641 5643 5646 5648 5650 5651 5653 5654 5656 5657 5658 5660 5661 5663 5664 5666 5668 5670 5672 5674 5676 5678 5680 5682 5683 5685 5686 5687 5689 5690 5692 5693 5695 5696 5697 5699 5700 5702 5703 5704
5582 5583 5584 5586 5587 5587 5588 5590 5591 5592 5594 5595 5597 5599 5602 5604 5606 5609 5611 5613 5616 5618 5620 5622 5624 5626 5628 5631 5634 5637 5639 5641 5643 5646 5648 5649 5651 5652 5654 5655 5657 5658 5660 5662 5663 5665 5667 5668 5670 5672 5674 5676 5677 5679 5681 5682 5684 5686 5687 5688 5690 5691 5692 5694 5695 5697 5698 5700 5701
5580 5581 5582 5583 5584 5585 5586 5587 5588 5590 5591 5592 5594 5596 5598 5600 5602 5605 5607 5609 5611 5613 5616 5618 5620 5622 5624 5626 5629 5632 5634 5637 5639 5641 5643 5645 5647 5649 5651 5652 5654 5655 5657 5659 5660 5662 5663 5665 5667 5669 5670 5672 5673 5675 5677 5679 5680 5682 5683 5685 5686 5687 5689 5691 5692 5693 5695 5696 5698
5577 5578 5579 5581 5582 5582 5584 5585 5586 5587 5588 5590 5591 5593 5595 5597 5599 5601 5603 5605 5607 5609 5612 5613 5615 5618 5620 5622 5624 5627 5630 5632 5634 5636 5638 5641 5643 5645 5647 5649 5650 5652 5654 5655 5657 5658 5660 5662 5663 5665 5667 5668 5670 5672 5673 5675 5677 5678 5680 5681 5683 5684 5686 5687 5688 5690 5691 5693 5694
5575 5576 5577 5578 5579 5580 5581 5582 5583 5585 5586 5587 5588 5590 5592 5593 5595 5597 5599 5601 5603 5605 5607 5609 5612 5614 5616 5618 5620 5622 5625 5627 5630 5631 5633 5635 5638 5640 5643 5645 5647 5648 5650 5652 5653 5655 5657 5658 5660 5662 5663 5665 5666 5668 5670 5671 5673 5675 5676 5678 5679 5681 5682 5683 5685 5686 5687 5689 5690
5572 5573 5574 5575 5576 5577 5578 5579 5581 5582 5583 5584 5586 5587 5589 5590 5592 5593 5595 5597 5599 5601 5603 5605 5607 5610 5612 5613 5616 5618 5620 5622 5625 5627 5629 5631 5633 5635 5637 5640 5642 5644 5646 5648 5650 5652 5653 5655 5657 5658 5660 5661 5663 5664 5666 5668 5669 5671 5672 5674 5676 5677 5678 5680 5681 5682 5684 5685 5686
5570 5571 5572 5572 5573 5575 5576 5577 5577 5579 5580 5582 5583 5584 5586 5587 5589 5590 5592 5593 5595 5597 5599 5601 5603 5605 5607 5609 5612 5614 5616 5617 5620 5622 5625 5627 5628 5630 5632 5635 5637 5640 5642 5644 5646 5647 5649 5651 5652 5654 5656 5657 5659 5661 5662 5664 5666 5667 5669 5670 5672 5673 5674 5676 5677 5678 5680 5681 5682
5568 5568 5569 5570 5571 5572 5573 5574 5575 5576 5577 5578 5580 5581 5583 5584 5586 5587 5588 5590 5592 5594 5596 5597 5599 5601 5603 5605 5607 5609 5611 5613 5616 5618 5620 5622 5624 5626 5628 5630 5632 5635 5637 5639 5641 5643 5645 5647 5648 5650 5652 5653 5655 5657 5658 5660 5662 5663 5665 5666 5667 5669 5670 5672 5673 5674 5676 5677 5678
5565 5566 5567 5567 5568 5569 5570 5571 5572 5573 5574 5576 5577 5578 5580 5581 5582 5584 5585 5587 5588 5590 5592 5593 5595 5597 5599 5601 5603 5605 5607 5609 5611 5613 5615 5617 5620 5622 5624 5626 5627 5629 5632 5634 5636 5638 5640 5642 5644 5645 5647 5649 5650 5652 5654 5656 5657 5659 5660 5662 5663 5665 5666 5667 5669 5670 5671 5672 5674
5563 5563 5564 5565 5566 5567 5567 5568 5570 5571 5572 5573 5574 5575 5577 5578 5579 5580 5582 5583 5585 5586 5588 5589 5591 5593 5595 5597 5599 5601 5603 5605 5607 5608 5611 5613 5615 5617 5619 5621 5623 5625 5627 5629 5631 5633 5635 5637 5639 5641 5642 5644 5646 5647 5649 5651 5652 5654 5656 5657 5659 5660 5662 5663 5664 5666 5667 5668 5669
5561 5561 5562 5562 5563 5564 5565 5566 5567 5568 5569 5570 5571 5572 5573 5575 5576 5577 5579 5580 5582 5583 5584 5586 5587 5589 5591 5593 5595 5597 5599 5601 5602 5604 5606 5608 5610 5612 5614 5616 5618 5620 5622 5624 5627 5628 5630 5632 5634 5636 5637 5639 5641 5642 5644 5646 5647 5649 5651 5652 5654 5656 5657 5658 5660 5661 5662 5664 5665
5558 5559 5560 5560 5561 5562 5562 5563 5564 5565 5566 5567 5568 5569 5571 5572 5573 5574 5575 5577 5578 5579 5581 5582 5584 5586 5587 5589 5591 5593 5595 5596 5598 5600 5602 5604 5606 5607 5610 5612 5614 5616 5617 5620 5622 5624 5625 5627 5629 5631 5633 5634 5636 5638 5639 5641 5642 5644 5646 5647 5649 5651 5652 5654 5655 5657 5658 5659 5661
5557 5557 5557 5558 5558 5559 5560 5561 5562 5562 5563 5565 5566 5567 5567 5568 5570 5571 5572 5573 5575 5576 5577 5579 5581 5582 5584 5585 5587 5589 5591 5592 5594 5596 5598 5599 5601 5603 5605 5607 5609 5611 5613 5615 5617 5619 5621 5623 5625 5627 5628 5630 5631 5633 5635 5636 5638 5639 5641 5642 5644 5646 5647 5649 5651 5652 5653 5655 5656
5554 5555 5555 5556 5556 5557 5557 5558 5559 5560 5561 5562 5563 5564 5565 5566 5567 5568 5569 5570 5572 5573 5574 5576 5577 5578 5580 5582 5583 5585 5586 5588 5590 5592 5593 5595 5597 5599 5601 5602 5605 5607 5609 5611 5613 5615 5617 5618 5620 5622 5623 5625 5627 5628 5630 5632 5633 5635 5637 5638 5640 5641 5643 5644 5646 5647 5649 5651 5652
5552 5553 5553 5553 5554 5554 5555 5556 5557 5557 5558 5559 5560 5561 5562 5563 5564 5565 5566 5567 5568 5570 5571 5572 5573 5575 5577 5578 5580 5581 5582 5584 5586 5587 5589 5591 5593 5595 5597 5598 5600 5602 5604 5607 5608 5610 5612 5614 5616 5617 5619 5621 5622 5624 5626 5627 5629 5631 5632 5634 5635 5637 5639 5640 5642 5643 5645 5646 5648
5551 5551 5551 5551 5552 5552 5553 5553 5554 5555 5556 5557 5557 5558 5559 5560 5561 5562 5563 5564 5565 5566 5567 5568 5570 5572 5573 5575 5576 5577 5579 5580 5582 5583 5585 5587 5589 5591 5592 5594 5596 5598 5600 5602 5604 5606 5607 5609 5611 5613 5615 5616 5618 5620 5621 5623 5625 5626 5628 5630 5631 5633 5634 5636 5637 5639 5640 5642 5643
5549 5549 5549 5549 5550 5550 5550 5551 5552 5552 5553 5554 5555 5555 5556 5557 5558 5559 5560 5561 5562 5563 5564 5565 5567 5569 5570 5571 5572 5574 5575 5577 5578 5580 5581 5583 5585 5586 5588 5590 5592 5594 5596 5598 5600 5601 5603 5605 5607 5609 5610 5612 5614 5615 5617 5619 5621 5622 5624 5625 5627 5629 5630 5632 5633 5635 5636 5638 5639
5547 5547 5547 5547 5548 5548 5548 5549 5549 5550 5550 5551 5552 5553 5553 5554 5555 5556 5557 5558 5559 5560 5561 5562 5564 5565 5566 5567 5569 5570 5572 5573 5574 5576 5577 5579 5581 5582 5584 5586 5588 5590 5591 5593 5595 5597 5599 5601 5602 5604 5606 5608 5610 5611 5613 5615 5616 5618 5620 5621 5623 5624 5626 5627 5629 5631 5632 5634 5635
5545 5545 5545 5546 5546 5546 5546 5546 5547 5547 5548 5548 5549 5550 5551 5552 5552 5553 5554 5555 5556 5557 5558 5559 5560 5561 5562 5564 5565 5567 5567 5569 5571 5572 5573 5575 5577 5578 5580 5582 5583 5585 5587 5589 5591 5593 5594 5596 5598 5600 5602 5604 5605 5607 5609 5611 5612 5614 5616 5617 5619 5620 5622 5623 5625 5627 5628 5630 5631
5543 5543 5543 5543 5544 5544 5544 5544 5544 5545 5545 5546 5547 5547 5548 5549 5549 5550 5551 5552 5553 5554 5555 5556 5557 5558 5559 5560 5562 5563 5564 5565 5567 5568 5570 5571 5573 5574 5576 5578 5579 5581 5583 5585 5587 5588 5590 5592 5594 5596 5598 5600 5601 5603 5605 5606 5608 5610 5611 5613 5615 5616 5618 5619 5621 5622 5624 5625 5627
5542 5542 5542 5542 5542 5542 5542 5542 5542 5542 5543 5543 5544 5545 5545 5546 5547 5547 5548 5549 5549 5550 5551 5552 5553 5555 5556 5557 5558 5559 5561 5562 5563 5565 5566 5567 5569 5570 5572 5573 5575 5577 5579 5581 5582 5584 5586 5587 5590 5592 5593 5595 5597 5599 5601 5602 5604 5606 5607 5609 5611 5612 5614 5615 5617 5618 5620 5621 5623
5540 5540 5540 5540 5540 5540 5540 5540 5540 5540 5541 5541 5542 5542 5542 5543 5544 5544 5545 5546 5546 5547 5548 5549 5550 5551 5552 5553 5555 5556 5557 5558 5560 5561 5562 5563 5565 5567 5568 5569 5571 5573 5575 5576 5578 5580 5582 5583 5585 5587 5589 5591 5593 5594 5596 5598 5600 5601 5603 5605 5607 5608 5610 5611 5613 5614 5616 5617 5619
5538 5538 5538 5538 5538 5538 5538 5538 5538 5538 5539 5539 5539 5539 5540 5540 5541 5542 5542 5542 5543 5544 5545 5546 5547 5548 5549 5550 5551 5552 5553 5555 5556 5557 5559 5560 5561 5562 5564 5565 5567 5569 5571 5572 5574 5576 5577 5579 5581 5583 5585 5587 5588 5590 5592 5594 5596 5597 5599 5601 5602 5604 5606 5607 5609 5610 5612 5613 5615
5536 5536 5536 5536 5536 5536 5536 5536 5536 5536 5537 5537 5537 5537 5537 5537 5538 5538 5539 5539 5540 5541 5541 5542 5543 5544 5545 5547 5548 5549 5550 5551 5552 5554 5555 5556 5557 5559 5560 5562 5563 5565 5567 5568 5570 5572 5573 5575 5577 5578 5580 5582 5584 5586 5588 5590 5592 5593 5595 5597 5598 5600 5602 5603 5605 5606 5608 5609 5611
5535 5534 5534 5534 5534 5534 5534 5534 5534 5534 5534 5535 5535 5535 5535 5535 5535 5535 5536 5536 5537 5537 5538 5539 5540 5541 5542 5543 5544 5545 5547 5547 5549 5550 5551 5552 5554 5555 5557 5558 5560 5561 5563 5565 5566 5567 5569 5571 5573 5574 5576 5578 5580 5582 5584 5586 5587 5589 5591 5592 5594 5596 5597 5599 5601 5602 5604 5605 5607
5533 5532 5532 5532 5532 5532 5532 5532 5532 5532 5532 5532 5532 5532 5532 5532 5532 5532 5532 5532 5533 5533 5534 5535 5536 5537 5538 5539 5541 5542 5543 5544 5545 5547 5548 5549 5551 5552 5554 5555 5556 5558 5560 5561 5562 5564 5566 5567 5569 5571 5572 5574 5576 5578 5580 5582 5583 5585 5587 5588 5590 5592 5594 5595 5597 5599 5600 5602 5603
5531 5531 5531 5531 5531 5530 5530 5530 5530 5530 5530 5530 5530 5530 5530 5530 5529 5529 5529 5529 5529 5530 5530 5531 5532 5533 5534 5536 5537 5538 5539 5541 5542 5543 5545 5546 5547 5549 5550 5552 5553 5555 5556 5558 5559 5561 5562 5564 5565 5567 5569 5571 5572 5574 5576 5578 5580 5582 5583 5585 5587 5588 5590 5592 5593 5595 5596 5598 5599